Location: Campillo
(40.8621°N, 4.2488°W)
Time: 22:30:22
(UTC+00:00)

X-37B - Pass Details

Date: 02 August 2021
Orbit: 381 x 393 km, 45.0° (Epoch: 29 August)

Event Time Altitude Azimuth Distance (km) Brightness Sun altitude
Exits shadow 04:08:09 20° 243° (WSW) 947 1.9 -11.6°
Maximum altitude 04:10:10 83° 159° (SSE) 387 0.5 -11.3°
Drops below altitude 10° 04:13:19 10° 69° (ENE) 1,398 4.8 -10.8°
Sets 04:15:23 0° 69° (ENE) 2,254 6.3 -10.5°
